Date,TemperatureHighF,TemperatureAvgF,TemperatureLowF,DewpointHighF,DewpointAvgF,DewpointLowF,HumidityHigh,HumidityAvg,HumidityLow,PressureMaxIn,PressureMinIn,WindSpeedMaxMPH,WindSpeedAvgMPH,GustSpeedMaxMPH,PrecipitationSumIn
2012-12-1,54.0,49.5,48.0,49.0,44.3,40.0,100,84,60,0.00,40.00,7,3,16,0.04
2012-12-2,47.0,45.9,45.0,46.0,44.7,42.0,100,96,82,0.00,40.00,5,2,20,0.01
2012-12-3,49.0,46.9,46.0,47.0,45.7,42.0,100,96,87,0.00,40.00,6,4,15,0.00
2012-12-4,53.0,48.5,45.0,51.0,45.3,40.0,100,89,69,0.00,40.00,7,4,17,0.00
2012-12-5,50.0,44.3,41.0,40.0,37.5,35.0,86,76,64,0.00,40.00,8,4,21,0.00
2012-12-6,46.0,37.0,43.0,43.0,18.3,-99.9,97,73,82,0.00,40.00,6,4,14,0.00
2012-12-7,46.0,44.4,43.0,43.0,40.1,36.0,93,85,75,0.00,40.00,9,5,16,0.00
2012-12-9,40.0,40.0,40.0,39.0,39.0,39.0,95,95,95,0.00,40.00,3,3,6,0.00
2012-12-10,44.0,44.0,44.0,41.0,41.0,41.0,90,90,90,0.00,40.00,1,1,2,0.00
2012-12-11,43.0,43.0,43.0,43.0,43.0,43.0,100,100,100,0.00,40.00,0,0,0,0.00
2012-12-12,44.0,43.1,42.0,44.0,43.0,42.0,100,100,98,0.00,40.00,3,1,6,0.01
2012-12-13,45.0,42.1,41.0,41.0,38.9,36.0,100,89,71,0.00,40.00,3,2,8,0.00
2012-12-14,43.0,40.7,39.0,41.0,38.8,36.0,100,94,75,0.00,40.00,3,2,8,0.01
2012-12-15,40.0,38.2,36.0,39.0,36.0,32.0,100,92,81,0.00,40.00,6,4,13,0.00
2012-12-16,45.0,40.4,39.0,43.0,39.8,39.0,100,98,94,0.00,40.00,7,5,12,0.01
2012-12-17,44.0,44.0,44.0,44.0,44.0,33.0,100,100,100,0.00,40.00,6,6,12,0.00
2012-12-18,39.0,37.8,37.0,33.0,32.2,32.0,84,80,75,0.00,40.00,6,3,15,0.00
2012-12-19,42.0,42.0,42.0,42.0,42.0,40.0,100,100,100,0.00,40.00,7,6,13,0.02
2012-12-20,42.0,40.7,40.0,42.0,40.2,37.0,100,98,89,0.00,40.00,5,3,14,0.02
2012-12-21,32.0,31.0,30.0,32.0,31.0,30.0,100,100,100,0.00,40.00,0,0,2,0.00
2012-12-22,44.0,41.4,38.0,43.0,40.0,37.0,100,95,76,0.00,40.00,7,3,18,0.00
2012-12-23,45.0,41.3,38.0,38.0,38.0,38.0,100,88,75,0.00,40.00,3,2,6,0.01
2012-12-24,39.0,39.0,39.0,39.0,39.0,39.0,100,100,100,0.00,40.00,2,2,5,0.00
2012-12-25,40.0,39.5,39.0,40.0,39.5,39.0,100,100,100,0.00,40.00,2,1,5,0.00
2012-12-26,43.0,43.0,43.0,43.0,43.0,43.0,100,100,99,0.00,40.00,6,4,12,0.00
2012-12-27,42.0,42.0,42.0,42.0,41.3,40.0,100,98,93,0.00,40.00,2,1,5,0.00
2012-12-28,38.0,38.0,38.0,38.0,38.0,38.0,100,100,100,0.00,40.00,0,0,1,0.00
2012-12-29,40.0,39.0,38.0,40.0,38.7,37.0,100,99,98,0.00,40.00,1,1,3,0.00
2012-12-30,39.0,36.0,33.0,35.0,34.0,33.0,100,93,86,0.00,40.00,3,2,8,0.00
2012-12-31,38.0,37.7,37.0,34.0,33.3,33.0,88,84,81,0.00,40.00,5,3,7,0.00